WJA671 CYHZ-CYYC

Flight info

Callsign WJA671
Flight time N/A
Altitude 36000
Route KELNO DCT EMLOB DCT PQI DCT YUC DCT PEMLU DCT MOGAG DCT 52N090W DCT DALDE DCT UDPAV BIRKO6
Aircraft B738/M-SDE2E3FGHIRWXY/LB1

Departure

Time N/A
Airport Halifax / Stanfield International Airport (CYHZ)

Arrival

Time 2026-05-03 20:16
Airport Calgary International Airport (CYYC)
Time Latitude Longitude Altitude Speed Heading
2026-05-03 20:15 51.07147 -114.02142 4074 ft 140 kts 359°
2026-05-03 20:15 51.08132 -114.02143 3889 ft 141 kts 359°
2026-05-03 20:15 51.09113 -114.02145 3707 ft 141 kts 360°
2026-05-03 20:15 51.10098 -114.02142 3561 ft 144 kts
2026-05-03 20:16 51.10995 -114.02143 3559 ft 111 kts 360°
2026-05-03 20:16 51.11584 -114.02103 3555 ft 58 kts 24°
2026-05-03 20:16 51.11742 -114.01927 3558 ft 3 kts 60°
2026-05-03 20:16 51.11750 -114.01897 3556 ft 3 kts 68°
2026-05-03 20:17 51.11759 -114.01865 3558 ft 4 kts 63°
2026-05-03 20:17 51.11790 -114.01812 3558 ft 9 kts 27°
2026-05-03 20:17 51.11861 -114.01796 3558 ft 12 kts
2026-05-03 20:17 51.11958 -114.01796 3557 ft 15 kts
2026-05-03 20:18 51.12070 -114.01795 3558 ft 18 kts 360°
2026-05-03 20:18 51.12187 -114.01799 3555 ft 14 kts 358°
2026-05-03 20:18 51.12293 -114.01801 3558 ft 17 kts 359°
2026-05-03 20:18 51.12419 -114.01802 3558 ft 19 kts
2026-05-03 20:19 51.12527 -114.01798 3558 ft 13 kts
2026-05-03 20:19 51.12594 -114.01750 3558 ft 12 kts 62°
2026-05-03 20:19 51.12603 -114.01640 3558 ft 8 kts 85°
2026-05-03 20:19 51.12602 -114.01545 3558 ft 11 kts 90°
2026-05-03 20:20 51.12630 -114.01422 3555 ft 14 kts 47°
2026-05-03 20:20 51.12703 -114.01319 3556 ft 13 kts 41°
2026-05-03 20:20 51.12763 -114.01237 3557 ft 10 kts 41°
2026-05-03 20:20 51.12805 -114.01168 3558 ft 10 kts 59°
2026-05-03 20:21 51.12794 -114.01053 3558 ft 11 kts 124°
2026-05-03 20:21 51.12765 -114.00983 3558 ft 6 kts 123°
2026-05-03 20:21 51.12750 -114.00899 3558 ft 10 kts 97°
2026-05-03 20:21 51.12743 -114.00788 3558 ft 8 kts 95°
2026-05-03 20:22 51.12741 -114.00699 3558 ft 6 kts 77°
2026-05-03 20:22 51.12773 -114.00651 3555 ft 8 kts 21°
2026-05-03 20:22 51.12801 -114.00646 3558 ft 3 kts
2026-05-03 20:22 51.12835 -114.00644 3556 ft 6 kts 359°
2026-05-03 20:23 51.12852 -114.00669 3558 ft 3 kts 293°
2026-05-03 20:23 51.12860 -114.00723 3558 ft 3 kts 281°
2026-05-03 20:23 51.12863 -114.00749 3558 ft 2 kts 281°
2026-05-03 20:23 51.12863 -114.00754 3558 ft 0 kts 281°